DELTA 1 DEB, 42088

Orbit data source: Space-Track

DELTA 1 DEB, 42088 is space debris in SSO originally from a launch on Sun, 15 Dec 1968 UTC launched from the Air Force Western Test Range (AFWTR). Debris objects in space refer to the collection of defunct objects orbiting the Earth. Examples of debris include non-operational satellites, rocket bodies, and fragments generated from explosions, collisions, or faulty payload assembly.

Loading next visibility...
Identifier
42088, 1968-114Q
Orbit
SSO
Last TLE update
7 months ago
Origin
Manufacturer
Aerojet
Mission
Spacecraft
Bus & Motor
Unknown
Mass
Unknown
Launch date (UTC)
1968-12-15 (56 years ago)
Launch vehicle
Unknown
Launch site
Air Force Western Test Range (AFWTR)
Object type
Payload
Rocket body
Debris
Shape & HBR
Unknown
Radar Cross Section
Small (<0.1 m²)

Expand to show TLE details & history

TLE from 7 months ago
0 DELTA 1 DEB
1 42088U 68114Q   24274.08736838  .00000011  00000-0  36304-3 0  9995
2 42088 101.6227 225.7779 0021412  46.4269 313.8575 12.48844283895450
Epoch: 2024-09-30T02:05Z
Definitive object data (Epoch: 2024-09-30T02:05:48.628Z)
Latitude
0.00005°
Longitude
-174.9952°
Altitude
1,460.283 km
Speed
7.138 km/s
True Right ascension
15h 03m 06s
True Declination
0° 00' 00"
Sunlit
Object was in daylight at TLE epoch
Visualization TLE readout
Latitude
-71.28427°
Longitude
-177.37553°
Altitude
1,494.376 km
Speed
7.117 km/s
Apparent Right ascension
07h 45m 22s
Apparent Declination
-73° 00' 22"
Sunlit
Object is in daylight
Visualization observer readout
Local Sidereal Time
17:46:54
Azimuth
194.208° SSW
Elevation
-53.952°
Doppler factor
1
Orbital elements
Apogee altitude
1,483.671 km
Perigee altitude
1,450.076 km
Semi-major axis
7,845.011 km
Eccentricity
0.0021412
Inclination
101.6227°
RAAN
225.7779°
Arg. of periapsis
46.4269°
True anomaly
313.68025°
Mean anomaly
313.8575°
Eccentric anomaly
313.76891°
Mean motion
3.12358 °/min
BSTAR
0.00036304
Orbital period
115.25 mins
Loading maneuver chart data...
Loading SW <> Apogee altitude chart data...
Loading historical data...
Loading historical data...
Loading historical data...
Loading historical data...
Loading historical data...
Loading historical data...
Loading historical data...

DELTA 1 DEB Visibility forecast

Observer location: undefined°, undefined°

Span
Click to sort rows by Start time (UTC) header in descending order
Start Az.
Max El. time (UTC)
Max El. Az.
Max El.
End time (UTC)
End Az.
15 mins2025-05-09 10:46:32.707Z4.003° NNE2025-05-09 10:54:32.707Z291.379° WNW33.381°2025-05-09 11:01:32.707Z233.413° WSW
5 mins2025-05-09 18:08:32.707Z57.787° ENE2025-05-09 18:10:32.707Z42.406° NE13.235°2025-05-09 18:13:32.707Z20.67° NNE
15 mins2025-05-09 19:54:32.707Z141.684° SSE2025-05-09 20:01:32.707Z68.048° E41.133°2025-05-09 20:09:32.707Z349.899° N
12 mins2025-05-09 21:49:32.707Z213.171° SW2025-05-09 21:55:32.707Z268.45° W25.99°2025-05-09 22:01:32.707Z318.814° NNW
9 mins2025-05-10 08:01:32.707Z57.85° ENE2025-05-10 08:05:32.707Z90.572° ESE18.964°2025-05-10 08:10:32.707Z130.617° SE
|